DW7888 Weather Reports


Display with metric or nautical units.
time (UTC)temp
F
wind
direction
speed
MPH
gust
MPH
rain 1hr
in
rain 24hr
in
rain mn
in
humidity
%
barometer
mb
20260903111017 73 345 0.0 0.0 0.00 0.00 0.00 96 1017.5
20260903110510 72 344 0.0 0.0 0.00 0.00 0.00 96 1017.4
20260903110023 72 344 0.0 0.0 0.00 0.00 0.00 96 1017.4
20260903105518 72 344 0.0 0.0 0.00 0.00 0.00 95 1017.4
20260903105012 73 344 0.0 0.0 0.00 0.00 0.00 96 1017.4
20260903104526 73 344 0.0 0.0 0.00 0.00 0.00 96 1017.3
20260903104017 73 344 0.0 0.0 0.00 0.00 0.00 96 1017.3
20260903103511 73 344 0.0 0.0 0.00 0.00 0.00 96 1017.3
20260903103027 73 344 0.0 1.0 0.00 0.00 0.00 95 1017.4
20260903102514 73 345 0.0 1.0 0.00 0.00 0.00 95 1017.5
20260903102014 73 341 0.0 0.0 0.00 0.00 0.00 95 1017.4
20260903101526 73 59 0.0 0.0 0.00 0.00 0.00 95 1017.3
20260903101018 73 59 0.0 0.0 0.00 0.00 0.00 95 1017.3
20260903100510 73 59 0.0 0.0 0.00 0.00 0.00 95 1017.2
20260903100027 73 59 0.0 0.0 0.00 0.00 0.00 95 1017.2
20260903095517 73 59 0.0 0.0 0.00 0.00 0.00 95 1017.2
20260903095019 73 59 0.0 0.0 0.00 0.00 0.00 95 1017.2
20260903094504 73 59 0.0 0.0 0.00 0.00 0.00 95 1017.2
20260903094012 73 59 0.0 0.0 0.00 0.00 0.00 95 1017.3
20260903093512 73 59 0.0 0.0 0.00 0.00 0.00 95 1017.3
20260903093003 73 59 0.0 0.0 0.00 0.00 0.00 95 1017.3
20260903092513 73 59 0.0 0.0 0.00 0.00 0.00 95 1017.2
20260903092015 73 59 0.0 0.0 0.00 0.00 0.00 95 1017.2
20260903091504 73 59 0.0 0.0 0.00 0.00 0.00 95 1017.1
20260903091007 73 59 0.0 0.0 0.00 0.00 0.00 95 1017.0
20260903090515 73 59 0.0 0.0 0.00 0.00 0.00 95 1016.9
20260903090005 73 59 0.0 0.0 0.00 0.00 0.00 95 1016.8
20260903085509 73 59 0.0 0.0 0.00 0.00 0.00 95 1016.8
20260903085011 74 59 0.0 0.0 0.00 0.00 0.00 95 1016.7
20260903084504 74 59 0.0 0.0 0.00 0.00 0.00 95 1016.7
20260903084010 74 59 0.0 0.0 0.00 0.00 0.00 95 1016.8
20260903083515 74 59 0.0 0.0 0.00 0.00 0.00 95 1016.8
20260903083008 74 59 0.0 0.0 0.00 0.00 0.00 95 1016.7
20260903082509 74 59 0.0 0.0 0.00 0.00 0.00 95 1016.6
20260903082003 74 59 0.0 0.0 0.00 0.00 0.00 95 1016.8
20260903081506 74 59 0.0 0.0 0.00 0.00 0.00 95 1016.8
20260903081014 74 59 0.0 0.0 0.00 0.00 0.00 95 1017.0
20260903080504 74 59 0.0 0.0 0.00 0.00 0.00 95 1017.1
20260903080008 74 59 0.0 0.0 0.00 0.00 0.00 95 1017.1
20260903075513 74 59 0.0 0.0 0.00 0.00 0.00 95 1017.0
20260903075003 74 59 0.0 0.0 0.00 0.00 0.00 95 1017.0
20260903074511 74 59 0.0 0.0 0.00 0.00 0.00 95 1017.1
20260903074010 74 59 0.0 0.0 0.00 0.00 0.00 95 1017.2
20260903073504 74 59 0.0 0.0 0.00 0.00 0.00 95 1017.0
20260903073011 74 59 0.0 0.0 0.00 0.00 0.00 94 1016.9
20260903072513 74 59 0.0 0.0 0.00 0.00 0.00 94 1016.9
20260903072003 74 59 0.0 0.0 0.00 0.00 0.00 94 1017.0
20260903071509 74 59 0.0 0.0 0.00 0.00 0.00 94 1017.1
20260903071016 74 59 0.0 0.0 0.00 0.00 0.00 94 1017.2
20260903070508 74 59 0.0 0.0 0.00 0.00 0.00 94 1017.2
20260903070016 74 59 0.0 0.0 0.00 0.00 0.00 94 1017.3
20260903065512 75 59 0.0 0.0 0.00 0.00 0.00 94 1017.2
20260903065003 75 59 0.0 0.0 0.00 0.00 0.00 94 1017.1
20260903064511 75 59 0.0 0.0 0.00 0.00 0.00 94 1017.0
20260903064011 75 59 0.0 0.0 0.00 0.00 0.00 94 1017.1
20260903063504 75 59 0.0 0.0 0.00 0.00 0.00 94 1017.2
20260903063011 75 59 0.0 0.0 0.00 0.00 0.00 94 1017.3
20260903062514 75 59 0.0 0.0 0.00 0.00 0.00 94 1017.3
20260903062006 75 59 0.0 0.0 0.00 0.00 0.00 94 1017.3
20260903061516 75 59 0.0 0.0 0.00 0.00 0.00 94 1017.4
20260903061015 75 59 0.0 0.0 0.00 0.00 0.00 94 1017.4
20260903060506 75 355 0.0 0.0 0.00 0.00 0.00 94 1017.2
20260903060016 75 355 0.0 0.0 0.00 0.00 0.00 94 1017.3
20260903055516 75 355 0.0 0.0 0.00 0.00 0.00 94 1017.4
20260903055004 75 355 0.0 0.0 0.00 0.00 0.00 94 1017.5
20260903054518 75 355 0.0 0.0 0.00 0.00 0.00 93 1017.6
20260903054014 75 355 0.0 0.0 0.00 0.00 0.00 93 1017.7
20260903053507 75 355 0.0 0.0 0.00 0.00 0.00 93 1017.8
20260903053016 75 355 0.0 0.0 0.00 0.00 0.00 93 1017.9
20260903052516 75 355 0.0 0.0 0.00 0.00 0.00 93 1017.8
20260903052006 75 355 0.0 0.0 0.00 0.00 0.00 93 1017.7
20260903051518 75 355 0.0 0.0 0.00 0.00 0.00 93 1017.6
20260903051014 75 355 0.0 0.0 0.00 0.00 0.00 93 1017.7
20260903050506 75 355 0.0 0.0 0.00 0.00 0.00 93 1017.7
20260903050025 76 355 0.0 0.0 0.00 0.00 0.00 93 1017.7
20260903045516 76 355 0.0 0.0 0.00 0.00 0.00 93 1017.6
20260903045007 76 355 0.0 0.0 0.00 0.00 0.00 93 1017.6
20260903044519 76 355 0.0 0.0 0.00 0.00 0.00 93 1017.7
20260903044015 76 355 0.0 0.0 0.00 0.00 0.00 93 1017.6
20260903043510 76 355 0.0 0.0 0.00 0.00 0.00 93 1017.7
20260903043020 76 355 0.0 0.0 0.00 0.00 0.00 93 1017.6
20260903042516 76 355 0.0 0.0 0.00 0.00 0.00 93 1017.6
20260903042008 76 355 0.0 0.0 0.00 0.00 0.00 93 1017.5
20260903041532 76 355 0.0 0.0 0.00 0.00 0.00 93 1017.4
20260903041017 76 355 0.0 0.0 0.00 0.00 0.00 93 1017.4
20260903040510 76 355 0.0 0.0 0.00 0.00 0.00 93 1017.5
20260903040023 76 355 0.0 0.0 0.00 0.00 0.00 93 1017.5
20260903035519 76 355 0.0 0.0 0.00 0.00 0.00 93 1017.4
20260903035011 76 355 0.0 0.0 0.00 0.00 0.00 93 1017.4
20260903034525 76 116 0.0 0.0 0.00 0.00 0.00 93 1017.4
20260903034017 76 116 0.0 0.0 0.00 0.00 0.00 93 1017.3
20260903033511 76 116 0.0 0.0 0.00 0.00 0.00 93 1017.2
20260903033026 76 116 0.0 0.0 0.00 0.00 0.00 93 1017.2
20260903032518 76 116 0.0 0.0 0.00 0.00 0.00 92 1017.3
20260903032010 77 116 0.0 0.0 0.00 0.00 0.00 92 1017.2
20260903031528 77 116 0.0 0.0 0.00 0.00 0.00 92 1017.2
20260903031015 77 116 0.0 0.0 0.00 0.00 0.00 92 1017.2
20260903030515 77 116 0.0 0.0 0.00 0.00 0.00 92 1017.3
20260903030035 77 116 0.0 0.0 0.00 0.00 0.00 92 1017.4
20260903025521 77 116 0.0 0.0 0.00 0.00 0.00 92 1017.4
20260903025013 77 116 0.0 1.0 0.00 0.00 0.00 91 1017.4
20260903024527 77 116 0.0 1.0 0.00 0.00 0.00 91 1017.3
20260903024013 77 116 0.0 0.0 0.00 0.00 0.00 91 1017.5
20260903023514 78 116 0.0 0.0 0.00 0.00 0.00 91 1017.5
20260903023033 78 116 0.0 0.0 0.00 0.00 0.00 91 1017.6
20260903022508 78 116 0.0 0.0 0.00 0.00 0.00 91 1017.5
20260903022013 78 116 0.0 0.0 0.00 0.00 0.00 91 1017.6
20260903021530 78 116 0.0 0.0 0.00 0.00 0.00 90 1017.7
20260903021014 78 116 0.0 0.0 0.00 0.00 0.00 90 1017.6
20260903020513 78 116 0.0 0.0 0.00 0.00 0.00 90 1017.6
20260903020038 78 116 0.0 0.0 0.00 0.00 0.00 89 1017.7
20260903015508 79 116 0.0 0.0 0.00 0.00 0.00 89 1017.7
20260903015015 79 116 0.0 0.0 0.00 0.00 0.00 89 1017.7
20260903014543 79 116 0.0 0.0 0.00 0.00 0.00 89 1017.8
20260903014009 79 116 0.0 0.0 0.00 0.00 0.00 89 1017.7
20260903013515 79 116 0.0 0.0 0.00 0.00 0.00 88 1017.8
20260903013030 79 116 0.0 0.0 0.00 0.00 0.00 88 1017.8
20260903012522 79 116 0.0 0.0 0.00 0.00 0.00 88 1017.8
20260903012017 80 116 0.0 0.0 0.00 0.00 0.00 87 1017.8
20260903011538 80 116 0.0 0.0 0.00 0.00 0.00 87 1017.7
20260903011009 80 116 0.0 1.0 0.00 0.00 0.00 87 1017.7
20260903010515 80 116 0.0 1.0 0.00 0.00 0.00 87 1017.5
20260903010039 80 116 0.0 1.0 0.00 0.00 0.00 86 1017.5
20260903005511 80 116 0.0 1.0 0.00 0.00 0.00 86 1017.4
20260903005019 80 116 0.0 1.0 0.00 0.00 0.00 85 1017.2
20260903004506 81 116 0.0 1.0 0.00 0.00 0.00 85 1017.3
20260903004003 81 116 0.0 1.0 0.00 0.00 0.00 85 1017.3
20260903003503 81 116 0.0 2.0 0.00 0.00 0.00 84 1017.3
20260903003004 81 116 0.0 2.0 0.00 0.00 0.00 84 1017.2
20260903002505 81 171 0.0 1.0 0.00 0.00 0.00 84 1017.2
20260903002005 81 171 0.0 1.0 0.00 0.00 0.00 84 1017.2
20260903001505 81 171 0.0 0.0 0.00 0.00 0.00 83 1017.4
20260903001005 82 171 0.0 3.0 0.00 0.00 0.00 83 1017.3
20260903000503 82 171 0.0 3.0 0.00 0.00 0.00 82 1017.2
20260903000003 82 178 0.0 3.0 0.00 0.00 0.00 82 1017.1
20260902235504 82 179 0.0 3.0 0.00 0.00 0.00 82 1017.2
20260902235003 82 179 0.0 4.0 0.00 0.00 0.00 81 1017.3
20260902234504 82 109 1.0 4.0 0.00 0.00 0.00 81 1017.1
20260902234003 83 202 1.0 4.0 0.00 0.00 0.00 81 1017.0
20260902233503 83 171 0.0 8.0 0.00 0.00 0.00 81 1016.9
20260902233004 83 130 1.0 8.0 0.00 0.00 0.00 80 1017.0
20260902232504 83 186 0.0 9.0 0.00 0.00 0.00 80 1017.1
20260902232003 83 190 1.0 9.0 0.00 0.00 0.00 80 1017.2
20260902231505 83 161 0.0 7.0 0.00 0.00 0.00 80 1017.4
20260902231006 83 145 1.0 6.0 0.00 0.00 0.00 79 1017.4
20260902230504 83 343 0.0 6.0 0.00 0.00 0.00 79 1017.7
20260902230002 83 196 0.0 6.0 0.00 0.00 0.00 79 1017.6
20260902225503 83 103 3.0 8.0 0.00 0.00 0.00 79 1017.3
20260902225002 84 169 1.0 9.0 0.00 0.00 0.00 78 1017.2
20260902224504 84 178 3.0 9.0 0.00 0.00 0.00 78 1017.3
20260902224003 84 170 3.0 8.0 0.00 0.00 0.00 78 1017.7
20260902223503 84 160 1.0 4.0 0.00 0.00 0.00 78 1018.0
20260902223005 84 180 1.0 4.0 0.00 0.00 0.00 78 1017.8
20260902222507 85 164 0.0 6.0 0.00 0.00 0.00 77 1017.7
20260902222004 85 128 0.0 8.0 0.00 0.00 0.00 77 1017.8
20260902221515 85 160 1.0 8.0 0.00 0.00 0.00 76 1017.9
20260902221004 85 109 2.0 7.0 0.00 0.00 0.00 76 1018.0
20260902220505 85 186 3.0 7.0 0.00 0.00 0.00 75 1018.1
20260902220006 85 121 2.0 7.0 0.00 0.00 0.00 75 1017.8
20260902215503 85 76 3.0 8.0 0.00 0.00 0.00 74 1017.9
20260902215008 86 180 2.0 11.0 0.00 0.00 0.00 73 1017.8
20260902214516 86 132 3.0 11.0 0.00 0.00 0.00 71 1017.9
20260902214002 87 233 4.0 10.0 0.00 0.00 0.00 70 1017.6
20260902213502 88 149 4.0 10.0 0.00 0.00 0.00 68 1017.7
20260902213006 88 185 3.0 8.0 0.00 0.00 0.00 64 1017.7
20260902212503 88 117 3.0 14.0 0.00 0.00 0.00 63 1017.6
20260902212005 88 122 1.0 14.0 0.00 0.00 0.00 66 1017.6
20260902211504 89 158 3.0 12.0 0.00 0.00 0.00 65 1017.7
20260902211005 91 119 3.0 15.0 0.00 0.00 0.00 62 1017.6
20260902210505 92 198 5.0 15.0 0.00 0.00 0.00 61 1017.4
20260902210009 94 198 5.0 11.0 0.00 0.00 0.00 60 1017.3
20260902205504 94 166 2.0 7.0 0.00 0.00 0.00 60 1017.2
20260902205005 94 277 1.0 5.0 0.00 0.00 0.00 59 1017.2
20260902204508 94 242 1.0 4.0 0.00 0.00 0.00 58 1017.1
20260902204003 95 315 1.0 5.0 0.00 0.00 0.00 57 1017.1
20260902203506 95 355 1.0 5.0 0.00 0.00 0.00 56 1017.1
20260902203008 95 296 1.0 5.0 0.00 0.00 0.00 56 1017.1
20260902202506 96 46 1.0 6.0 0.00 0.00 0.00 56 1017.1
20260902202006 96 69 1.0 8.0 0.00 0.00 0.00 55 1017.2
20260902201509 96 128 3.0 8.0 0.00 0.00 0.00 55 1017.3
20260902201004 96 147 2.0 4.0 0.00 0.00 0.00 56 1017.3
20260902200511 96 343 2.0 4.0 0.00 0.00 0.00 53 1017.3
20260902200011 96 306 0.0 4.0 0.00 0.00 0.00 54 1017.4
20260902195506 96 294 0.0 4.0 0.00 0.00 0.00 53 1017.4
20260902195007 96 204 0.0 4.0 0.00 0.00 0.00 52 1017.3
20260902194526 95 302 0.0 4.0 0.00 0.00 0.00 54 1017.2
20260902194004 95 312 1.0 4.0 0.00 0.00 0.00 53 1017.2
20260902193504 95 345 1.0 5.0 0.00 0.00 0.00 55 1017.1
20260902193010 95 195 2.0 5.0 0.00 0.00 0.00 55 1017.1
20260902192508 96 109 1.0 5.0 0.00 0.00 0.00 57 1017.2
20260902192008 95 288 1.0 5.0 0.00 0.00 0.00 54 1017.3
20260902191512 95 42 2.0 5.0 0.00 0.00 0.00 53 1017.3
20260902191007 95 42 1.0 4.0 0.00 0.00 0.00 53 1017.3
20260902190507 95 107 1.0 3.0 0.00 0.00 0.00 56 1017.5
20260902190010 95 349 0.0 5.0 0.00 0.00 0.00 56 1017.5
20260902185508 95 325 0.0 5.0 0.00 0.00 0.00 56 1017.6
20260902185011 95 286 1.0 5.0 0.00 0.00 0.00 61 1017.7
20260902184509 94 325 1.0 3.0 0.00 0.00 0.00 58 1017.7
20260902184007 94 347 0.0 4.0 0.00 0.00 0.00 57 1017.7
20260902183509 95 269 0.0 6.0 0.00 0.00 0.00 57 1017.8
20260902183012 95 319 0.0 6.0 0.00 0.00 0.00 57 1017.8
20260902182508 96 321 0.0 5.0 0.00 0.00 0.00 57 1017.8
20260902182008 94 337 1.0 4.0 0.00 0.00 0.00 58 1017.9
20260902181514 94 59 0.0 4.0 0.00 0.00 0.00 58 1017.9
20260902181009 94 329 1.0 4.0 0.00 0.00 0.00 59 1018.0
20260902180509 94 5 1.0 4.0 0.00 0.00 0.00 56 1018.0
20260902180014 95 352 1.0 6.0 0.00 0.00 0.00 56 1018.0
20260902175512 95 324 1.0 6.0 0.00 0.00 0.00 57 1018.0
20260902175008 94 304 1.0 6.0 0.00 0.00 0.00 59 1018.0
20260902174515 94 15 1.0 5.0 0.00 0.00 0.00 57 1018.0
20260902174010 95 38 1.0 4.0 0.00 0.00 0.00 55 1018.0
20260902173512 95 219 0.0 4.0 0.00 0.00 0.00 59 1018.0
20260902173023 95 122 1.0 3.0 0.00 0.00 0.00 58 1017.9
20260902172509 94 293 1.0 5.0 0.00 0.00 0.00 58 1018.0
20260902172011 94 324 2.0 5.0 0.00 0.00 0.00 58 1018.0
20260902171518 94 352 3.0 5.0 0.00 0.00 0.00 56 1018.0
20260902171014 93 327 1.0 4.0 0.00 0.00 0.00 59 1018.0
20260902170510 93 132 1.0 4.0 0.00 0.00 0.00 58 1018.1
20260902170019 94 321 1.0 4.0 0.00 0.00 0.00 60 1018.0
20260902165510 94 51 1.0 4.0 0.00 0.00 0.00 58 1018.0
20260902165014 93 15 1.0 4.0 0.00 0.00 0.00 58 1018.1
20260902164518 94 320 1.0 4.0 0.00 0.00 0.00 58 1018.1
20260902164011 93 127 1.0 4.0 0.00 0.00 0.00 62 1018.1
20260902163511 93 350 1.0 4.0 0.00 0.00 0.00 58 1018.1
20260902163018 93 193 0.0 5.0 0.00 0.00 0.00 66 1018.1
20260902162509 93 30 1.0 5.0 0.00 0.00 0.00 61 1018.1
20260902162013 93 115 0.0 4.0 0.00 0.00 0.00 60 1018.2
20260902161520 92 30 2.0 4.0 0.00 0.00 0.00 58 1018.2
20260902161017 92 34 1.0 5.0 0.00 0.00 0.00 60 1018.2
20260902160512 92 158 1.0 5.0 0.00 0.00 0.00 62 1018.3
20260902160022 92 42 0.0 5.0 0.00 0.00 0.00 61 1018.3
20260902155510 92 24 0.0 5.0 0.00 0.00 0.00 60 1018.3
20260902155014 91 349 2.0 5.0 0.00 0.00 0.00 60 1018.3
20260902154515 91 355 0.0 3.0 0.00 0.00 0.00 62 1018.3
20260902154005 92 230 0.0 4.0 0.00 0.00 0.00 63 1018.4
20260902153504 91 27 1.0 4.0 0.00 0.00 0.00 64 1018.3
20260902153016 92 192 0.0 3.0 0.00 0.00 0.00 65 1018.3
20260902152505 91 305 0.0 7.0 0.00 0.00 0.00 63 1018.4
20260902152007 90 329 1.0 7.0 0.00 0.00 0.00 63 1018.5
20260902151526 91 117 1.0 5.0 0.00 0.00 0.00 69 1018.5
20260902151005 90 327 1.0 5.0 0.00 0.00 0.00 62 1018.6
20260902150508 89 331 0.0 5.0 0.00 0.00 0.00 66 1018.7
20260902150022 89 22 1.0 3.0 0.00 0.00 0.00 63 1018.6
20260902145503 89 209 1.0 4.0 0.00 0.00 0.00 67 1018.6
20260902145008 88 315 1.0 4.0 0.00 0.00 0.00 67 1018.5
20260902144523 88 319 1.0 3.0 0.00 0.00 0.00 67 1018.4
20260902144004 88 321 1.0 3.0 0.00 0.00 0.00 67 1018.4
20260902143508 87 318 1.0 3.0 0.00 0.00 0.00 69 1018.4
20260902143026 87 330 1.0 4.0 0.00 0.00 0.00 68 1018.5
20260902142506 87 49 0.0 4.0 0.00 0.00 0.00 69 1018.4
20260902142008 87 355 1.0 3.0 0.00 0.00 0.00 70 1018.4
20260902141532 86 304 0.0 3.0 0.00 0.00 0.00 71 1018.5
20260902141005 86 44 1.0 3.0 0.00 0.00 0.00 73 1018.4
20260902140507 85 342 1.0 3.0 0.00 0.00 0.00 73 1018.5
20260902140024 85 317 0.0 3.0 0.00 0.00 0.00 74 1018.5
20260902135505 84 329 0.0 0.0 0.00 0.00 0.00 76 1018.5
20260902135010 83 54 0.0 0.0 0.00 0.00 0.00 77 1018.5
20260902134535 83 360 0.0 0.0 0.00 0.00 0.00 78 1018.4
20260902134005 83 306 0.0 0.0 0.00 0.00 0.00 79 1018.5
20260902133511 82 316 0.0 3.0 0.00 0.00 0.00 80 1018.4
20260902133025 82 331 0.0 3.0 0.00 0.00 0.00 81 1018.3
20260902132512 82 39 0.0 3.0 0.00 0.00 0.00 81 1018.3
20260902132011 81 44 0.0 2.0 0.00 0.00 0.00 82 1018.2
20260902131530 81 34 0.0 2.0 0.00 0.00 0.00 82 1018.3
20260902131004 81 350 1.0 3.0 0.00 0.00 0.00 82 1018.2
20260902130513 80 352 0.0 3.0 0.00 0.00 0.00 83 1018.2
20260902130027 80 350 0.0 1.0 0.00 0.00 0.00 83 1018.2
20260902125514 80 350 0.0 1.0 0.00 0.00 0.00 84 1018.2
20260902125017 79 350 0.0 2.0 0.00 0.00 0.00 85 1018.3
20260902124527 79 350 0.0 2.0 0.00 0.00 0.00 86 1018.2
20260902124007 78 350 0.0 1.0 0.00 0.00 0.00 89 1018.1
20260902123511 78 350 0.0 2.0 0.00 0.00 0.00 89 1018.2
20260902123028 77 350 0.0 2.0 0.00 0.00 0.00 90 1018.2
20260902122511 77 350 0.0 0.0 0.00 0.00 0.00 92 1018.2
20260902122012 76 350 0.0 0.0 0.00 0.00 0.00 93 1018.3
20260902121528 76 350 0.0 0.0 0.00 0.00 0.00 94 1018.2
20260902121006 75 350 0.0 0.0 0.00 0.00 0.00 94 1018.2
20260902120512 75 350 0.0 0.0 0.00 0.00 0.00 95 1018.1
20260902120029 75 350 0.0 0.0 0.00 0.00 0.00 95 1018.1
20260902115512 75 350 0.0 0.0 0.00 0.00 0.00 95 1018.1
20260902115014 75 350 0.0 0.0 0.00 0.00 0.00 95 1018.1
20260902114538 75 350 0.0 0.0 0.00 0.00 0.00 95 1018.0
20260902114011 74 350 0.0 0.0 0.00 0.00 0.00 95 1018.0
20260902113515 74 350 0.0 0.0 0.00 0.00 0.00 95 1018.1
20260902113026 74 350 0.0 0.0 0.00 0.00 0.00 95 1018.1
20260902112511 74 350 0.0 0.0 0.00 0.00 0.00 95 1018.0
20260902112015 74 350 0.0 0.0 0.00 0.00 0.00 95 1018.1
20260902111529 74 350 0.0 0.0 0.00 0.00 0.00 95 1018.1